SKU011 SUMU-SLVR

Flight info

Callsign SKU011
Flight time N/A
Altitude 36000
Route MONSA UP526 GEMSU UZ120 SIS UM784 BOLET UL404 VIR
Aircraft A320/M-SDE3FGHIRWY/LB1

Departure

Time 2026-05-06 14:05
Airport Carrasco General Cesáreo L. Berisso International Airport (SUMU)

Arrival

Time N/A
Airport Viru Viru International Airport (SLVR)
Time Latitude Longitude Altitude Speed Heading
2026-05-06 13:51 -34.84024 -56.02652 85 ft 0 kts 147°
2026-05-06 13:57 -34.84013 -56.02661 89 ft 2 kts 152°
2026-05-06 13:58 -34.83998 -56.02671 85 ft 2 kts 153°
2026-05-06 13:58 -34.83984 -56.02680 87 ft 2 kts 161°
2026-05-06 13:58 -34.83967 -56.02685 84 ft 2 kts 193°
2026-05-06 13:58 -34.83955 -56.02675 86 ft 1 kts 247°
2026-05-06 13:59 -34.83954 -56.02671 86 ft 0 kts 249°
2026-05-06 13:59 -34.83957 -56.02681 86 ft 8 kts 248°
2026-05-06 14:00 -34.84001 -56.02774 84 ft 13 kts 245°
2026-05-06 14:00 -34.84011 -56.02877 82 ft 12 kts 270°
2026-05-06 14:00 -34.84011 -56.02968 82 ft 10 kts 270°
2026-05-06 14:00 -34.84011 -56.03043 82 ft 8 kts 268°
2026-05-06 14:01 -34.84026 -56.03098 86 ft 6 kts 247°
2026-05-06 14:01 -34.84040 -56.03139 84 ft 4 kts 247°
2026-05-06 14:01 -34.84050 -56.03168 85 ft 3 kts 247°
2026-05-06 14:01 -34.84076 -56.03241 84 ft 12 kts 246°
2026-05-06 14:02 -34.84113 -56.03324 86 ft 10 kts 241°
2026-05-06 14:02 -34.84155 -56.03416 85 ft 23 kts 241°
2026-05-06 14:02 -34.84225 -56.03571 83 ft 17 kts 241°
2026-05-06 14:02 -34.84230 -56.03667 83 ft 10 kts 308°
2026-05-06 14:03 -34.84186 -56.03652 83 ft 6 kts 49°
2026-05-06 14:03 -34.84174 -56.03633 86 ft 0 kts 53°
2026-05-06 14:04 -34.84126 -56.03554 86 ft 45 kts 53°
2026-05-06 14:04 -34.83786 -56.03001 85 ft 117 kts 53°
2026-05-06 14:04 -34.83179 -56.01999 92 ft 171 kts 53°
2026-05-06 14:04 -34.82447 -56.00810 638 ft 181 kts 53°
2026-05-06 14:05 -34.81702 -55.99592 1505 ft 177 kts 53°
2026-05-06 14:05 -34.80847 -55.98546 2191 ft 178 kts 23°
2026-05-06 14:05 -34.79586 -55.98471 2481 ft 195 kts 340°
2026-05-06 14:05 -34.78252 -55.99121 2711 ft 217 kts 338°
2026-05-06 14:06 -34.76787 -55.99813 3023 ft 238 kts 339°
2026-05-06 14:06 -34.75160 -56.00556 3455 ft 258 kts 339°
2026-05-06 14:06 -34.73452 -56.01322 4225 ft 264 kts 339°
2026-05-06 14:06 -34.71719 -56.02089 5043 ft 267 kts 340°
2026-05-06 14:07 -34.69955 -56.02860 5877 ft 271 kts 340°
2026-05-06 14:07 -34.68168 -56.03635 6669 ft 274 kts 340°
2026-05-06 14:07 -34.66366 -56.04416 7456 ft 277 kts 340°
2026-05-06 14:07 -34.64539 -56.05213 8230 ft 280 kts 340°
2026-05-06 14:08 -34.62692 -56.06020 8988 ft 284 kts 340°
2026-05-06 14:08 -34.60828 -56.06837 9725 ft 287 kts 340°
2026-05-06 14:08 -34.58929 -56.07668 10302 ft 297 kts 340°
2026-05-06 14:08 -34.56905 -56.08554 10501 ft 321 kts 340°
2026-05-06 14:09 -34.54758 -56.09492 10888 ft 334 kts 340°
2026-05-06 14:09 -34.52549 -56.10455 11523 ft 339 kts 340°
2026-05-06 14:09 -34.50343 -56.11417 12185 ft 343 kts 340°
2026-05-06 14:09 -34.48062 -56.12411 12846 ft 346 kts 340°
2026-05-06 14:10 -34.45812 -56.13391 13474 ft 349 kts 340°
2026-05-06 14:10 -34.43519 -56.14388 14077 ft 353 kts 340°
2026-05-06 14:10 -34.41948 -56.15071 14489 ft 355 kts 340°
2026-05-06 14:10 -34.40405 -56.15742 14891 ft 357 kts 340°